Regional Weather Roundup
Issued by NWS Wakefield, VA

Home | Current Version | Previous Version | Text Only | Print | Product List | Glossary On
Versions: 1 2 3 4 5 6 7 8 9 10 11 12 13 14 15 16 17 18 19 20 21 22 23 24 25 26 27 28 29 30 31 32 33 34 35 36 37 38 39 40 41 42 43 44 45 46 47 48 49 50
000
ASUS41 KAKQ 280610
RWRAKQ

REGIONAL WEATHER ROUNDUP
NATIONAL WEATHER SERVICE WAKEFIELD VA
200 AM EDT THU AUG 28 2014

Note: "fair" indicates few or no clouds below 12,000 feet with no
significant weather and/or obstructions to visibility. * = Denotes
station may not report precipitation (e.g., rain,snow,etc.),
thunder or fog.

VAZ042-051-052>054-056-280700-
NORTHERN VIRGINIA

CITY           SKY/WX    TMP DP  RH WIND       PRES   REMARKS
WASH NATIONAL  FAIR      80  66  62 N5        29.89F
DULLES         FAIR      77  69  76 NW10G16   29.92S
FORT BELVOIR   FAIR      70  67  92 CALM      29.90F
QUANTICO       FAIR      74  67  78 NW5       29.90F
FREDERICKSBRG* FAIR      73  67  83 CALM      29.90F
STAFFORD*      FAIR      69  69 100 CALM      29.95F
WARRENTON      FAIR      70  70 100 CALM      29.92S
CULPEPER*      FAIR     N/A N/A N/A CALM      29.93S
MANASSAS*      FAIR      72  72 100 CALM      29.91F
LEESBURG*      FAIR      79  72  78 N10       29.93F
WINCHESTER     FAIR      75  68  78 NW5       29.96S
$$

VAZ048-049-060>072-079>083-280700-
CENTRAL AND SOUTH CENTRAL VIRGINIA...AND NORTH CENTRAL NORTH CAROLINA

CITY           SKY/WX    TMP DP  RH WIND       PRES   REMARKS
RICHMOND       FAIR      73  63  70 CALM      29.91F
CHESTERFIELD*  FAIR     N/A N/A N/A CALM      29.93F
HANOVER        FAIR      69  65  86 CALM      29.92F
TAPPAHANNOCK*  FAIR      69  64  85 CALM      29.91F
CHARLOTTSVILLE FAIR      71  68  90 S3        29.94F
ORANGE*        FAIR      72  66  83 CALM      29.94F
LOUISA*        FAIR      70  64  83 W5        29.92S
FARMVILLE*     FAIR      68  66  94 CALM      29.92F
SOUTH HILL*    FAIR      70  68  94 CALM      29.99S
ROANOKE RAPIDS FAIR      64  63  94 SW5       29.93F
RALEIGH        FAIR      66  62  87 CALM      29.97F
$$

VAZ088>098-280700-
SOUTHEAST VIRGINIA

CITY           SKY/WX    TMP DP  RH WIND       PRES   REMARKS
NORFOLK        FAIR      71  63  75 SW6       29.89F
VIRGINIA BEACH FAIR      68  64  87 SW5       29.89F
NORFOLK NAVAL  FAIR      72  65  78 SW3       29.91F
WEST POINT*    MOCLDY    69  66  89 CALM      29.91F
NEWPORT NEWS   FAIR      71  65  81 CALM      29.90F
LANGLEY AFB    FAIR      69  69  99 W5        29.89F
FORT EUSTIS    FAIR      71  71 100 NW1       29.89F
WILLIAMSBURG*  FAIR      70  66  88 CALM      29.91F
FRANKLIN*      FAIR      64  63  94 CALM      29.92S
WAKEFIELD      FAIR      66  63  90 CALM      29.91F
$$

VAZ020-022-025-037-045-280700-
WESTERN AND SOUTHWEST VIRGINIA

CITY           SKY/WX    TMP DP  RH WIND       PRES   REMARKS
STAUNTON*      FAIR      68  64  89 CALM      30.01S
HOT SPRINGS VA MOCLDY    65  65  99 W8        30.16F
LYNCHBURG      FAIR      66  66 100 CALM      30.00R
DANVILLE       FAIR      68  64  87 SW5       29.98F
MARTINSVILLE   FAIR      64  64 100 CALM      30.03S
ROANOKE        FAIR      73  64  73 W8        30.03R
BLACKSBURG     FAIR      70  68  94 W3        30.10S
DUBLIN*        FAIR      69  66  90 W3        30.10F
MARION*        FAIR     N/A N/A N/A W9        30.15F
HILLSVILLE*    FAIR      67  60  79 W6        30.12F
RICHLANDS*     FAIR      69  62  78 CALM      30.15F
WISE*          FAIR      66  61  82 CALM      30.16S
ABINGDON*      FAIR      64  62  93 CALM      30.12F
$$

MDZ021>025-VAZ099-100-280700-
SOUTHERN MARYLAND AND THE DELMARVA PENINSULA

CITY           SKY/WX    TMP DP  RH WIND       PRES   REMARKS
PATUXENT RIVER FAIR      72  67  84 SW5       29.88F
BAY BRIDGE APT   N/A     77  70  78 CALM      29.87F
LEONARDTOWN    FAIR      70  64  83 CALM      29.90F
DOVER          FAIR      73  67  80 SW7       29.84F
GEORGETOWN     FAIR      70  65  84 S7        29.87
EASTON         FAIR      74  71  91 CALM      29.91F
CAMBRIDGE      FAIR      72  68  88 CALM      29.87F
SALISBURY      FAIR      71  66  84 W3        29.87F
OCEAN CITY     FAIR      70  65  84 W6        29.86F
WALLOPS ISLAND FAIR      72  69  90 W7        29.88F
ACCOMACK*      NOT AVBL
$$

NCZ012>017-030>032-280700-
EASTERN NORTH CAROLINA

CITY           SKY/WX    TMP DP  RH WIND       PRES   REMARKS
ELIZABETH CITY FAIR      66  64  93 SW3       29.91F
AHOSKIE*       FAIR      63  61  93 CALM      29.93F
EDENTON*       FAIR      68  66  94 CALM      29.93S
CURRITUCK*     FAIR      67  65  90 SW5       29.92F
KILL DEVIL HLS FAIR      72  69  91 CALM      29.89F
MANTEO         FAIR      73  69  89 W3        29.91F
CAPE HATTERAS  FAIR      73  69  87 NW8       29.92
GOLDSBORO      FAIR      67  67  98 CALM      29.95S
WASHINGTON     FAIR      67  64  89 CALM      29.95S
GREENVILLE     FAIR      66  63  88 CALM      29.96F
NEW BERN       FAIR      68  64  87 CALM      29.96S
WILMINGTON     FAIR      67  65  93 CALM      29.97S
$$

VAZ048-280700-
ELSEWHERE

CITY           SKY/WX    TMP DP  RH WIND       PRES   REMARKS
HARRISBURG PA  MOCLDY    76  67  73 N5        29.91F
BALTIMORE      FAIR      75  68  78 W3        29.88F
ANNAPOLIS        N/A    N/A N/A N/A MISG      29.87F
ANDREWS AFB    FAIR      76  68  76 W5        29.89F
WILMINGTON DE  FAIR      72  68  87 NW8       29.87F
PHILADELPHIA   FAIR      78  67  68 NW5       29.86F
WILDWOOD NJ*   FAIR      73  64  73 W6        29.87F
ATLANTIC CITY  FAIR      72  68  87 MISG      29.85F
HENDERSON NC   FAIR      67  61  80 W5        29.97S
GREENSBORO     FAIR      70  62  76 W7        30.00F
ROCKY MOUNT    FAIR      65  63  93 S3        29.95F
FAYETTEVILLE   FAIR      68  62  81 W6        29.98S
CHARLOTTE      FAIR      64  60  87 CALM      30.03S
$$

VAZ100-280700-
MARINE

STATION/POSITION TIME  TEMP    WIND        PRES    WAVE   SWELL
                       AIR SEA DIR/SP/G            HT/PER HT/PER
                 (UTC) (F)     (DEG/KT/KT) (MB)    (FT/S) (FT/S)
44066 TX TWR #4  0600   72 74  250/  6/  6 1010.5F   7/15   7/15
CAPE MAY NJ      0600   75 80  250/  7/  9 1010.6F
LEWES DE         0600   71 77  230/  3/  4 1010.9F
15NM E FENWICK I 0600   74 74              1011.0F   4/ 9
OCEAN-CITY-INLET 0600   71 76  280/  5/  6 1011.0F
WACHAPREAGUE VA  0600   70 79  270/  2/  3 1011.8F
THOMAS POINT MD  0600   77 79  260/  8/  9 1012.5F
GOOSES REEF MD   0600   79     290/ 10/ 12 1012.2F
COVE POINT MD    0600   78     280/  8/ 11 1011.5F
SOLOMONS ISLAND  0600      80                N/A
BISHOPS HEAD MD  0600   79 80  280/  8/  9 1011.6F
PINEY POINT MD   0600          300/  5/  6   N/A
POTOMAC MD       0600   77     280/ 12/ 14 1011.3F
CAMBRIDGE MD     0600   73 78  170/  2/  3 1011.3F
LEWISETTA VA     0600   75 79  280/  7/  9 1011.8S
RAPPAHANNOCK LGT 0600          260/ 11/ 12 1012.6F
STINGRAY PT      0600   76     280/  8/  8   N/A
YORK RVR RNG VA  0600   76     280/ 11/ 11 1011.8S
YORKTOWN VA      0600   75 80  250/  8/ 10 1011.9S
JAMESTOWN VA     0600   73     270/  4/  6   N/A
DOMINION TERM VA 0600   75     290/  7/  8 1012.4F
KIPTOPEKE VA     0600      81  280/  8/  9   N/A
CHES BAY BRIDGE  0600   76 78  230/  9/ 10 1011.7F
CAPE HENRY VA    0600   73     240/  7/  8 1011.1S
CHESAPEAKE LGHT  0500   75     280/  8/  9 1013.2F
WILLOUBY STN VA  0600   76     280/  9/ 10 1010.9F
S CRANEY ISL VA  0600          200/  4/  6 1012.1F
CAPE HENRY BUOY  0600      76                N/A     3/13   2/13
1ST LANDING BUOY 0600   77     260/ 10/ 12 1012.0S
CAPE CHARLES BUO 0600      76                N/A     4/13   3/13
OFFSHORE WE BUOY 0600      75                N/A     5/11   5/11
64NM E OF VA BCH 0600   75 74  320/ 10/ 14 1011.3F   8/12   8/12
DUCK PIER NC     0600   73 77  270/  8/  9 1011.9F
44056 DUCK FRF   0600                        N/A     5/11   3/11
OREGON INLET NC  0600   74 79  290/  5/  7 1012.7F
HATTERAS NC      0600   76 80  310/ 11/ 11 1013.5F
DIAMOND SHLS NC  0600   76     310/ 14/ 17 1012.5F   7/11   7/11
CAPE LOOKOUT NC  0500   76     330/  7/  8 1014.2S
$$


USA.gov is the U.S. government's official web portal to all federal, state and local government web resources and services.